Location: North Runcton
(52.7000°N, 0.4333°E)
Time: 21:41:24
(UTC+00:00)

ISS - Pass Details

Date: 19 May 2025
Orbit: 415 x 416 km, 51.6° (Epoch: 18 June)

Event Time Altitude Azimuth Distance (km) Brightness Sun altitude
Rises 21:50:12 0° 281° (W) 2,362 0.7 -12.5°
Reaches altitude 10° 21:52:23 10° 272° (W) 1,496 -0.5 -12.6°
Maximum altitude 21:55:31 37° 204° (SSW) 671 -3.0 -12.8°
Enters shadow 21:56:54 24° 155° (SSE) 897 -2.7 -12.9°
